Theta_e
312 312 316 316 316 320 322 325 328 328 327 324 324 323 322 323 323 323 322 320 319 316 315 315 314 314 314 314 314 313 314 315 315 314 317 324 322 320 320 321 323 320 318 317 314 312 312 315 318 321 324 324 322 322 321 321 318 314 313 313 315 316 317 317 315 315 317 320 322 323 321 320 321 320 318 316 318 321 320 320 321 323 325 324 323 323 324 324 325 326 326 326 326 325 324 325 326
312 312 315 316 318 322 324 326 327 327 325 322 323 323 324 325 323 322 321 319 317 316 315 315 314 314 314 314 314 313 314 315 315 319 320 320 320 321 319 318 321 317 317 318 314 311 312 315 317 321 323 324 323 322 322 321 318 315 314 313 316 319 319 318 317 317 317 320 322 321 319 320 321 320 318 316 318 319 319 319 320 322 322 322 323 323 324 324 325 325 325 325 325 324 324 325 326
312 313 315 318 321 323 325 325 325 324 324 322 321 324 326 325 323 322 319 318 317 315 314 313 313 313 314 313 313 314 314 316 315 317 317 316 319 320 318 318 319 317 317 319 316 312 312 313 316 320 323 324 324 323 323 321 318 318 317 314 320 323 322 320 319 319 320 321 321 319 318 320 321 320 319 318 318 317 317 317 319 320 318 321 323 323 323 324 325 324 323 323 324 324 324 325 326
312 314 316 319 322 324 326 327 326 324 323 322 320 324 326 324 323 321 319 318 316 316 315 314 313 313 314 314 314 314 314 315 314 314 315 316 319 320 319 318 320 318 316 320 318 315 315 314 315 319 322 323 324 324 324 321 319 321 318 317 323 324 323 322 321 322 322 321 318 317 319 320 321 320 319 319 318 317 317 315 318 319 316 321 324 323 323 324 324 323 323 324 324 324 325 325 325
313 315 316 319 322 324 325 327 326 324 324 323 321 324 325 324 323 321 319 318 317 316 315 315 314 313 313 313 313 314 315 314 313 313 315 317 319 320 318 318 321 318 316 320 319 320 322 318 315 317 320 322 325 326 325 322 322 324 319 320 325 323 323 322 322 323 322 319 315 316 320 320 320 319 319 318 318 317 316 315 317 318 316 320 323 323 323 323 323 323 323 324 324 324 325 325 325
315 317 318 319 321 321 323 324 324 324 325 326 323 324 325 323 322 321 320 318 316 316 316 315 315 314 313 313 313 314 315 314 313 312 315 318 319 318 317 318 320 318 316 319 321 324 327 325 319 315 318 322 325 327 326 324 324 325 321 322 325 323 323 322 323 322 320 316 314 318 320 320 318 317 316 315 315 314 313 314 315 317 316 320 323 323 323 323 323 323 324 324 324 324 325 325 325
317 318 321 322 322 321 322 322 322 323 325 326 325 324 324 323 323 322 322 320 316 315 315 315 314 314 314 314 313 314 314 314 313 312 315 318 319 317 316 317 320 319 316 318 323 326 328 328 323 316 316 321 325 327 326 325 325 325 323 324 323 323 322 322 322 320 316 314 316 320 320 319 316 313 312 311 310 309 309 311 312 314 315 319 322 323 322 322 323 323 324 324 324 325 325 325 325
316 317 322 324 324 323 322 321 321 323 323 324 324 324 324 323 323 322 322 321 318 316 315 314 314 314 315 314 314 314 313 313 313 313 313 314 316 317 316 316 319 320 316 318 322 325 326 327 325 317 313 318 324 327 326 325 326 324 324 324 323 321 321 321 320 317 315 314 316 319 319 318 315 312 311 309 306 305 304 306 307 309 315 319 322 322 322 322 322 323 324 324 324 325 325 325 325
317 318 322 322 322 323 323 322 322 323 323 324 324 324 324 323 323 322 321 321 321 319 316 314 314 315 317 315 315 314 312 312 312 312 312 312 314 315 315 315 318 319 316 318 321 322 324 324 323 317 311 316 324 327 326 325 325 325 324 323 321 319 319 319 317 315 314 314 317 319 318 316 313 310 309 307 305 303 303 303 303 304 312 319 321 322 321 322 322 323 323 324 325 325 325 325 324
317 318 321 321 322 324 324 324 323 324 324 324 324 323 324 323 323 321 321 321 321 320 317 315 314 315 317 316 316 315 312 311 311 311 311 312 314 313 314 315 317 318 315 317 319 319 321 321 319 314 310 312 321 326 326 326 325 324 324 323 321 318 318 316 314 314 313 315 317 318 316 314 311 308 306 305 303 303 303 302 301 301 309 317 320 320 320 321 322 323 323 324 324 324 324 324 323
318 319 319 321 323 325 325 325 323 324 323 323 324 323 323 323 322 321 321 320 320 320 316 314 315 314 315 315 317 314 311 311 310 310 310 312 314 312 313 315 317 318 315 316 318 319 318 318 316 311 308 309 318 323 325 326 325 324 324 323 321 319 318 316 313 313 314 315 316 316 313 311 309 306 304 303 303 303 303 303 302 301 306 314 318 319 318 319 321 323 323 324 323 323 323 323 323
320 321 321 321 322 323 324 324 323 324 323 322 322 322 322 322 321 320 320 320 320 320 317 315 316 315 315 316 316 313 311 311 310 311 310 310 312 312 313 315 316 318 316 314 316 318 317 315 313 309 307 307 314 321 324 326 324 324 324 323 322 319 318 317 315 313 314 315 314 313 311 308 306 304 304 303 303 303 303 303 302 300 304 311 315 317 317 318 320 322 323 323 322 322 323 323 323
319 322 322 322 323 322 323 322 322 323 322 322 321 320 321 321 321 320 320 320 320 320 318 316 316 315 316 317 316 312 311 311 312 312 310 309 310 310 312 314 316 318 318 315 314 317 315 313 310 307 306 305 309 316 321 324 323 323 323 323 323 320 318 318 316 314 314 314 313 311 308 305 304 303 303 303 303 303 303 303 303 301 302 309 313 315 317 317 318 321 322 322 321 322 322 323 324
319 321 322 323 323 322 322 321 321 321 320 321 320 319 319 319 319 319 318 319 319 318 316 315 316 315 316 317 317 314 311 312 312 311 310 310 311 311 313 315 315 317 319 316 314 314 314 312 309 306 305 305 305 310 317 322 322 321 322 322 322 322 320 319 318 315 313 311 310 308 305 304 303 303 303 303 303 303 303 303 303 301 301 308 312 315 316 316 317 320 321 321 320 321 322 323 324
320 320 321 322 322 322 322 321 321 320 320 321 319 318 319 319 318 318 317 318 317 315 314 314 315 316 316 317 317 315 312 311 311 310 310 311 313 313 314 315 314 315 318 317 314 313 313 312 310 307 305 304 304 306 311 317 319 319 320 321 322 322 320 319 319 316 312 308 306 305 303 303 302 303 303 303 303 303 303 303 304 301 302 308 312 315 316 316 317 318 320 320 320 321 322 323 323
322 320 320 322 322 323 322 321 321 320 321 321 319 317 318 318 318 317 316 316 316 315 315 315 314 315 316 316 315 314 312 311 310 309 310 311 312 314 315 316 315 314 315 316 315 312 311 311 311 309 307 305 303 303 307 312 315 317 318 319 321 321 320 319 318 316 311 306 304 303 303 303 302 303 303 304 304 303 303 303 304 302 302 308 312 314 316 316 316 317 319 320 319 321 322 323 323
322 318 321 322 321 323 322 320 320 320 320 320 318 316 317 317 316 315 313 313 314 314 314 315 314 314 314 315 314 313 311 310 309 310 312 312 312 314 315 315 315 315 314 314 314 312 311 310 310 310 310 308 305 303 306 311 312 313 315 318 320 320 320 318 318 316 311 306 303 303 303 302 302 304 306 306 305 304 304 303 304 302 301 307 313 314 316 317 316 317 320 321 319 320 322 322 322
318 317 320 321 321 322 321 320 319 319 319 319 318 316 316 317 317 315 313 314 313 313 314 315 315 314 313 314 314 313 311 310 310 312 315 315 314 315 315 314 314 314 314 313 312 312 311 310 310 310 311 312 311 308 311 315 314 313 313 315 318 320 319 318 318 315 310 306 303 302 302 302 305 308 309 309 307 304 304 303 303 302 300 305 312 314 316 317 317 318 321 321 320 320 321 321 321
315 317 319 319 319 320 319 318 318 318 317 318 319 317 317 317 317 316 315 316 315 315 315 315 316 316 315 314 314 313 311 311 312 313 317 318 315 315 315 314 314 313 314 314 312 311 311 310 310 309 309 312 314 313 314 317 318 317 315 314 316 318 318 318 317 314 310 306 303 303 302 304 308 310 310 310 308 305 303 303 303 302 300 302 309 314 316 317 319 321 321 321 321 320 320 320 319
315 317 319 319 318 319 318 317 317 317 317 318 318 317 317 317 317 316 317 317 317 317 316 317 317 317 317 316 316 314 311 311 313 313 317 318 317 315 315 315 314 313 313 313 312 311 311 311 310 309 309 310 314 315 316 318 318 319 318 316 315 315 315 315 315 313 310 306 304 305 304 307 309 310 309 309 307 304 303 304 304 303 302 303 308 313 316 318 320 322 321 321 321 320 320 320 319
315 315 318 319 318 319 318 317 317 316 317 318 317 317 317 317 317 317 317 317 317 317 317 317 317 318 318 318 319 317 314 314 314 314 315 317 318 316 316 315 315 314 314 313 313 312 311 311 310 310 309 308 311 314 316 318 318 319 318 316 315 314 313 313 313 311 310 307 307 308 307 308 310 309 309 309 307 305 306 306 305 306 306 307 309 313 316 318 320 322 321 321 320 320 320 319 318
315 314 315 316 316 317 317 316 317 317 317 317 317 317 317 316 316 316 317 317 316 316 317 317 317 318 317 318 318 317 317 317 316 316 315 315 317 317 317 316 315 316 315 314 314 313 312 311 310 310 309 309 309 311 315 316 317 318 316 314 313 315 314 314 313 312 312 310 309 309 308 309 310 309 308 309 308 305 306 307 307 308 307 308 311 314 316 317 319 321 321 320 319 320 320 318 318
315 314 314 315 315 315 315 315 317 318 317 317 317 316 316 316 315 315 315 316 316 316 316 316 317 317 316 316 316 315 316 316 317 317 316 315 315 316 317 316 316 316 316 316 315 314 314 312 311 310 310 309 308 310 313 315 316 316 314 311 311 314 315 315 315 314 312 311 310 308 308 309 309 307 307 309 308 306 306 308 308 309 307 307 311 314 315 316 319 321 321 320 319 319 320 318 317
314 314 314 314 314 314 314 314 316 317 316 316 316 315 315 315 315 314 314 315 315 316 315 316 316 315 315 315 315 314 314 314 315 315 316 316 316 316 316 316 316 316 316 316 316 316 315 313 312 311 310 309 309 309 312 314 314 313 311 310 310 313 315 315 315 314 313 312 310 308 307 309 309 308 308 309 308 306 306 308 309 308 307 307 309 312 314 316 319 320 320 320 319 319 319 317 316
315 314 314 313 312 313 314 315 316 316 315 315 315 314 314 314 314 314 313 314 314 314 314 314 314 314 314 313 313 313 313 314 314 313 314 315 315 316 317 316 317 316 316 315 316 316 315 315 313 311 311 310 309 309 311 312 313 311 310 311 311 312 314 314 315 314 313 312 310 308 306 308 309 309 309 309 309 307 307 308 308 307 308 307 307 310 313 315 319 320 320 320 319 319 318 316 316
314 313 313 312 312 312 313 314 315 315 315 315 314 313 313 313 313 312 312 313 313 313 312 312 312 312 313 313 313 313 313 314 314 313 313 314 314 315 316 317 317 316 316 315 315 316 316 315 314 312 311 310 310 309 310 311 311 310 310 311 311 311 313 313 314 314 312 311 310 309 307 307 309 310 310 309 308 308 308 308 307 306 307 307 306 309 313 315 319 320 320 320 319 319 317 315 315
312 312 312 311 312 312 313 314 314 314 314 314 315 313 312 312 312 312 312 312 312 313 312 312 313 313 313 313 313 314 313 314 313 313 313 313 313 313 315 315 316 315 315 315 315 316 315 315 315 313 312 311 310 310 310 310 310 310 309 310 310 310 312 313 313 312 311 310 310 309 307 306 308 310 309 309 308 307 308 307 307 307 307 307 307 309 312 315 319 320 320 320 319 318 316 315 314
312 311 311 310 311 311 312 313 313 313 313 312 313 311 312 312 311 311 311 311 311 312 313 313 313 313 313 313 313 313 314 312 311 312 312 312 312 312 313 313 314 314 314 315 315 315 315 315 315 314 312 311 310 310 310 310 310 310 309 310 309 310 310 311 312 312 311 310 310 309 308 306 306 309 309 309 308 307 308 308 308 308 308 308 307 309 311 315 319 319 318 318 318 317 315 314 314
311 310 310 310 310 311 311 311 312 312 312 310 309 309 310 310 310 310 310 311 311 311 312 312 312 312 312 312 312 313 313 311 310 311 311 311 311 312 313 313 314 314 314 314 314 315 314 314 314 314 313 312 311 311 310 309 309 310 310 309 309 310 310 310 311 311 310 310 310 309 308 306 304 307 309 309 308 307 308 308 309 308 308 308 307 308 308 313 318 317 316 317 317 316 315 314 313
310 309 309 310 310 310 311 311 311 311 311 309 308 308 309 310 311 311 311 311 311 312 312 312 312 312 312 312 312 312 312 312 312 311 310 311 311 311 312 312 313 314 314 314 314 314 314 314 314 314 313 312 311 310 310 309 309 310 310 309 309 310 310 309 310 310 310 310 309 309 309 307 304 306 308 308 307 306 307 308 308 307 307 307 308 306 304 311 318 317 317 318 316 316 315 314 313
309 310 310 311 310 310 311 310 310 310 309 308 308 308 309 309 311 310 312 313 312 313 313 312 312 311 311 312 312 312 312 313 312 310 311 311 311 311 312 312 312 313 313 313 313 313 313 313 313 314 313 312 311 311 310 310 309 309 310 310 310 310 310 309 309 310 310 309 309 309 308 307 305 305 307 308 306 305 306 308 307 307 308 307 306 304 304 313 318 316 317 318 315 315 314 312 311
309 310 311 312 310 310 310 309 309 308 308 307 307 308 308 309 310 311 313 313 312 312 312 311 311 311 311 312 312 312 312 312 311 311 311 312 312 312 312 312 312 313 313 313 313 313 313 313 313 313 313 312 311 311 310 310 309 309 309 310 310 310 310 309 309 310 310 309 309 309 308 307 305 305 307 307 306 305 306 308 306 307 308 306 305 305 307 314 317 316 318 317 315 315 313 311 310
311 311 312 313 311 310 310 308 308 309 308 307 308 308 308 309 310 311 312 311 311 311 311 311 310 311 311 311 311 312 312 313 313 312 311 312 312 312 312 312 312 312 313 313 313 314 313 313 313 313 312 312 311 311 311 310 310 309 310 310 310 309 309 309 310 311 310 309 309 309 308 307 305 305 306 307 306 305 305 307 307 307 307 305 306 307 306 312 316 317 317 316 316 315 313 311 309
314 312 312 312 311 310 310 308 309 310 308 308 308 307 307 308 309 310 310 310 311 310 310 311 311 312 312 313 313 313 313 314 316 314 313 312 312 313 313 313 313 312 313 313 313 314 313 313 313 313 312 312 311 311 311 311 310 310 310 310 310 309 309 309 310 310 310 309 309 309 308 307 305 304 306 306 306 305 305 307 307 308 307 304 307 307 305 312 316 316 316 315 315 315 313 311 309
315 315 313 313 312 310 310 309 309 310 309 308 309 308 308 309 309 309 310 310 311 311 311 312 313 313 313 314 314 314 315 315 317 316 314 314 313 313 312 312 312 312 312 312 312 313 314 314 313 313 312 312 311 311 311 311 311 311 311 310 310 309 309 309 310 310 310 309 309 309 309 307 305 304 305 305 305 305 305 307 307 308 306 304 307 307 306 313 316 315 316 315 314 314 312 311 309
315 315 313 314 313 311 310 310 308 308 309 309 309 308 308 308 308 309 310 311 312 312 312 313 314 315 315 315 315 316 318 318 319 317 316 317 315 314 313 312 312 311 311 311 311 312 313 314 314 313 312 311 312 312 311 311 311 311 311 310 310 310 310 310 310 310 310 309 309 309 309 308 306 304 304 304 304 305 305 306 307 307 305 303 306 307 308 313 315 316 316 314 313 312 311 311 309
314 314 313 314 313 311 311 311 309 308 309 309 309 309 308 309 309 310 312 313 313 313 313 313 314 315 317 318 318 320 321 322 321 318 317 317 317 315 314 313 312 311 311 310 310 310 311 312 313 313 312 311 311 312 312 312 311 311 311 310 310 311 311 310 310 310 310 309 309 309 309 308 307 305 304 304 304 305 305 306 306 307 304 303 305 307 308 311 314 316 316 314 313 311 310 311 309
314 313 313 313 313 312 311 313 310 308 310 310 310 310 310 310 311 311 312 312 313 313 313 314 314 315 318 320 322 323 323 323 322 320 319 317 316 316 314 313 312 310 310 309 309 309 310 311 312 312 312 311 311 311 312 311 311 311 310 310 310 311 311 310 310 310 310 309 309 309 308 308 307 305 305 304 304 304 305 306 306 306 304 303 305 307 308 311 313 315 315 313 313 312 310 310 308
314 314 314 313 312 312 313 314 311 309 311 311 311 311 311 311 311 311 312 311 311 313 313 314 316 317 319 320 322 323 322 323 322 322 321 317 315 315 314 313 311 310 310 309 309 309 309 310 311 312 311 311 311 311 311 311 311 311 310 310 310 311 311 310 310 310 310 310 309 309 308 308 307 306 305 304 304 304 305 306 306 306 304 303 305 307 308 311 314 315 314 313 312 312 310 310 309
314 314 314 314 313 313 314 314 312 310 311 311 312 312 311 312 313 314 314 315 314 315 316 317 319 320 321 321 323 323 320 320 322 321 320 319 317 316 314 313 312 310 310 309 308 308 309 310 311 312 311 310 310 311 311 310 310 310 310 311 311 310 310 309 310 310 310 310 309 309 308 308 307 306 305 305 304 304 304 305 306 306 305 303 304 306 307 310 313 314 314 312 312 312 311 310 309
314 314 313 313 314 315 314 314 313 313 313 312 314 315 316 316 316 315 314 317 319 320 321 323 323 322 322 321 322 322 318 319 321 320 320 320 319 317 315 314 312 311 310 309 308 308 309 309 310 311 310 310 310 310 310 310 310 311 310 311 311 310 310 310 310 310 310 310 309 309 308 308 307 306 306 305 304 304 304 305 305 306 306 304 304 305 306 308 311 313 313 312 312 312 311 310 310
313 316 315 315 316 316 316 316 316 318 318 316 316 319 322 318 314 313 311 314 319 321 322 324 323 324 323 321 321 323 322 322 323 321 321 320 319 318 316 314 313 311 310 310 309 308 309 309 309 310 310 310 310 310 310 311 311 311 311 310 310 310 310 310 310 310 310 310 310 309 309 308 308 307 306 306 305 304 304 304 305 305 306 305 304 305 306 307 309 311 311 311 312 312 311 310 310
314 317 318 318 317 316 317 316 317 320 320 318 317 318 319 315 311 312 313 314 317 319 322 324 323 322 322 321 322 324 324 324 324 323 321 320 320 319 317 315 314 313 312 311 310 309 309 309 309 310 310 310 310 310 310 311 311 310 311 310 310 310 309 309 309 309 309 309 310 309 309 309 308 307 306 306 306 304 304 304 305 305 305 306 305 305 306 306 306 308 309 310 311 312 311 310 310
316 318 318 318 315 316 318 317 319 320 318 319 321 317 316 316 313 313 314 314 317 319 320 322 321 320 320 320 321 322 321 321 321 321 320 318 319 318 315 315 314 313 312 310 309 309 308 308 309 309 310 310 310 310 309 310 310 310 311 310 310 310 309 309 309 309 309 309 310 310 310 309 308 307 307 306 306 305 304 305 305 305 305 306 306 305 305 305 305 306 309 309 311 312 312 311 311
317 316 317 318 316 317 319 318 320 319 318 321 322 318 319 322 317 313 315 315 316 319 320 320 319 318 320 320 321 321 320 320 319 318 318 317 316 315 313 313 312 311 310 309 309 308 308 308 308 308 309 310 310 310 309 310 310 310 311 311 310 310 310 309 309 309 310 309 310 310 310 309 309 308 307 307 307 306 305 305 305 305 305 305 306 305 305 305 306 306 308 309 309 311 312 311 311
315 315 317 317 317 317 317 318 318 318 319 322 322 319 319 323 319 312 314 316 317 320 319 319 319 320 323 322 322 320 318 319 319 317 317 317 314 312 312 312 311 311 309 308 309 309 308 308 308 308 309 309 310 310 309 309 310 310 311 311 311 310 310 310 310 309 310 310 309 310 310 309 309 308 308 307 307 307 306 306 305 305 305 305 305 306 305 305 306 306 307 308 308 310 311 311 311
315 316 318 319 319 318 316 318 316 316 321 321 319 318 314 318 321 314 314 317 318 319 317 318 319 321 323 323 320 317 316 317 317 317 318 317 314 311 311 311 311 311 308 307 309 309 308 308 308 309 309 309 309 310 310 309 310 310 310 311 310 310 310 310 310 309 310 310 309 310 309 309 309 308 308 308 307 307 307 306 306 305 305 305 304 305 305 305 305 306 307 308 308 308 310 311 311
316 318 318 318 320 320 317 317 315 318 324 320 316 316 314 317 321 315 314 315 315 316 315 316 318 320 322 322 319 317 316 316 317 318 319 319 318 315 313 313 312 310 308 307 308 308 309 308 308 309 308 309 309 310 309 309 309 310 310 310 310 310 310 310 310 310 310 310 310 309 309 309 309 308 308 308 308 307 307 307 306 306 306 305 304 304 304 304 305 305 306 307 308 308 308 310 311
315 317 316 316 317 319 319 320 321 321 321 317 314 316 318 319 315 312 314 313 313 316 317 319 319 319 320 320 319 318 318 319 318 319 321 321 321 320 317 314 312 311 309 309 308 308 308 309 309 309 308 308 309 309 309 309 309 309 309 310 310 310 310 310 311 310 310 310 310 309 309 309 309 309 308 308 307 307 307 307 307 306 306 305 305 304 304 304 305 305 305 306 307 308 308 309 310
314 317 318 317 317 316 317 320 321 320 318 316 314 315 319 319 314 314 315 313 315 317 318 323 321 318 319 320 321 319 319 321 319 319 322 321 320 320 318 314 313 313 311 310 309 308 308 309 309 309 309 308 309 309 309 309 309 309 308 309 310 310 310 310 311 311 311 310 310 309 309 309 309 309 308 308 307 307 307 307 306 306 306 306 305 305 304 304 304 304 304 305 306 306 307 307 308
313 316 317 318 318 317 318 319 319 320 320 317 313 315 322 321 317 318 316 315 317 315 317 322 320 319 321 321 320 319 319 320 320 321 322 321 319 318 316 313 313 314 312 311 310 309 309 309 309 309 309 309 309 309 309 309 309 309 308 309 309 310 310 310 311 311 311 311 310 310 309 309 309 309 309 308 307 307 307 306 306 306 306 306 306 305 305 304 304 304 305 305 305 305 306 306 307
315 316 318 319 319 318 319 318 317 317 318 317 317 319 323 319 316 316 315 316 316 314 317 318 317 320 322 321 320 318 317 319 322 323 321 320 320 318 315 314 314 313 312 311 310 310 309 309 309 309 309 309 309 309 309 309 309 309 309 309 309 309 310 311 311 312 312 311 311 310 310 309 309 309 309 308 308 307 307 306 306 306 306 306 306 305 305 304 304 304 304 305 305 305 305 305 306
316 317 319 318 316 316 318 317 315 316 318 321 320 320 319 315 317 317 315 315 314 315 315 314 316 321 321 322 322 321 321 323 325 325 323 323 323 320 314 313 313 312 311 311 310 310 309 309 310 309 309 309 310 310 309 309 309 309 309 309 309 309 309 310 311 311 312 311 311 310 310 309 309 309 309 308 308 307 307 306 306 306 306 306 306 306 305 305 304 304 304 304 305 304 304 304 305
315 317 316 316 314 313 315 317 317 319 321 321 318 318 318 316 318 318 316 315 315 314 314 314 317 321 321 324 326 327 327 325 322 324 326 326 329 325 315 312 312 311 310 311 310 311 310 309 310 309 309 309 309 310 309 309 309 309 309 309 309 309 309 310 310 311 311 311 311 310 310 310 309 309 309 308 308 308 307 307 306 306 306 306 306 306 306 305 305 304 304 304 304 304 304 304 304
312 314 312 314 316 316 316 315 317 319 320 321 321 318 317 317 317 316 316 317 316 315 314 314 317 320 322 324 327 328 326 324 324 325 323 322 329 329 317 312 312 310 309 309 309 310 309 309 309 309 309 309 309 309 309 309 309 309 309 309 309 309 309 309 309 310 310 310 311 310 310 310 309 309 309 309 308 308 307 307 307 306 306 306 306 306 305 306 305 305 304 304 304 304 304 304 304
310 312 312 311 313 316 317 316 317 319 318 320 323 320 317 319 319 315 316 316 315 315 315 316 317 319 320 322 326 328 327 329 330 325 318 317 324 324 315 312 312 309 309 309 308 309 308 307 307 307 308 309 309 309 309 310 309 309 309 309 309 309 309 309 309 309 309 310 310 310 310 310 310 310 309 309 309 308 308 308 307 307 306 306 306 306 306 306 305 305 305 304 304 304 304 304 304
311 311 313 312 312 313 315 316 317 317 318 318 320 319 318 318 318 316 316 315 315 316 317 319 320 319 319 322 327 329 330 330 326 318 315 317 319 316 312 312 312 309 309 308 308 308 307 307 307 307 307 308 308 309 309 310 309 309 309 309 309 309 309 309 309 309 309 309 309 310 310 310 310 310 309 309 309 309 308 308 307 307 306 306 306 306 306 306 305 305 305 305 304 304 304 304 304
312 312 313 314 314 315 316 317 316 315 317 318 318 319 317 316 316 316 315 315 315 317 319 320 320 319 321 326 329 329 329 326 320 315 316 317 318 315 311 310 311 310 309 308 308 308 307 307 307 307 307 307 307 308 308 309 309 309 309 309 309 309 309 309 309 309 309 308 309 309 309 309 309 309 309 309 309 309 308 308 308 307 306 306 306 306 306 306 306 305 305 305 304 304 304 304 304
Wind_Speed
15 15 15 14 14 13 10 5 2 2 2 4 4 4 6 3 2 2 4 1 2 3 3 1 2 0 2 1 2 4 5 4 3 0 2 3 8 10 12 12 12 14 16 15 15 19 20 19 19 18 17 16 15 14 14 14 13 12 11 11 11 10 10 9 8 8 7 6 6 5 5 4 5 5 5 4 3 3 4 4 5 5 6 7 7 7 8 9 11 11 12 12 13 13 14 15 16
13 14 14 14 12 8 3 3 2 3 3 4 4 6 7 2 1 2 2 4 4 2 1 1 2 1 2 2 3 5 5 3 3 2 2 9 12 9 11 13 13 15 17 15 15 19 20 20 19 18 17 16 16 15 14 14 13 12 12 11 11 10 9 9 8 7 7 6 6 5 5 5 5 5 5 4 3 3 4 4 4 5 6 6 6 8 9 10 11 11 11 11 12 14 14 15 16
11 11 13 14 8 5 2 3 3 4 4 4 4 5 6 3 1 2 7 7 6 4 3 2 1 1 2 3 2 3 3 4 1 3 5 10 9 9 12 12 13 15 17 15 15 19 20 20 19 19 18 17 16 15 15 14 13 12 12 11 11 10 9 9 8 7 6 6 6 6 5 4 5 5 5 4 4 4 4 4 5 5 5 6 7 8 9 9 10 11 11 12 13 14 15 15 16
9 8 9 10 5 4 2 3 3 4 4 4 3 7 5 2 2 3 9 6 5 5 2 2 1 1 3 3 2 3 4 3 4 4 4 5 6 12 14 13 15 15 17 15 14 17 18 19 20 19 18 17 16 16 15 14 13 13 12 11 11 10 10 9 8 7 7 7 7 6 5 4 5 4 5 4 4 4 4 4 5 5 5 6 7 8 9 9 10 11 11 12 13 14 15 16 17
8 6 4 4 3 1 2 3 3 5 5 4 3 7 6 2 1 3 8 6 6 4 2 2 1 1 2 2 1 1 2 1 4 6 5 5 8 13 13 15 16 14 18 16 14 16 16 17 19 19 18 17 16 16 15 14 13 13 12 11 11 10 10 9 8 8 7 7 7 5 5 5 5 5 5 4 4 4 4 5 5 6 5 5 7 8 8 9 10 11 12 12 13 14 15 16 18
7 6 3 4 3 3 2 3 4 5 5 5 5 7 10 7 3 5 4 6 6 4 4 3 2 0 2 2 3 3 1 2 3 3 6 9 11 12 12 16 15 14 17 16 15 14 15 17 18 19 18 17 17 16 16 15 14 13 12 12 11 11 10 9 9 8 8 8 7 5 5 5 5 5 5 5 4 4 4 5 5 5 5 5 6 7 8 9 10 11 12 13 14 14 15 17 18
5 4 2 4 3 3 3 5 6 5 5 6 7 8 11 9 3 5 1 2 3 3 3 2 2 1 2 2 3 6 5 2 3 3 7 12 13 11 12 16 14 13 16 17 16 15 16 17 17 18 19 17 17 17 16 15 14 13 12 12 12 11 10 10 9 9 8 8 6 6 5 5 6 6 5 5 4 4 5 5 5 5 5 5 6 7 8 9 10 11 12 13 14 15 16 16 17
5 3 0 1 2 2 4 6 6 6 6 8 10 10 10 9 2 2 3 1 2 4 4 3 3 1 3 3 2 6 7 5 5 7 9 12 14 12 12 15 15 13 16 18 17 16 16 16 17 18 19 18 17 17 16 15 14 14 13 13 12 11 11 10 10 9 8 7 7 6 6 5 6 6 6 6 5 5 5 5 6 5 5 5 5 7 8 9 10 11 12 13 14 15 15 16 17
6 3 0 1 2 3 5 6 7 7 7 9 11 11 11 9 4 2 4 4 4 3 6 7 6 3 3 3 3 3 7 8 9 10 9 11 12 12 12 14 15 14 16 18 18 17 16 17 17 18 19 18 17 17 16 15 15 14 13 13 12 12 11 11 10 9 9 8 7 6 6 6 6 6 6 7 6 5 5 6 6 6 5 5 5 6 7 8 10 11 12 13 13 14 15 15 16
5 4 1 1 3 4 6 7 7 6 8 10 10 12 12 5 1 2 5 5 5 4 3 7 6 5 4 3 3 2 8 11 10 10 9 10 11 11 13 13 13 15 17 18 18 18 18 17 17 18 19 18 18 18 17 16 15 15 14 14 13 12 12 11 11 10 9 8 7 7 7 7 6 6 7 7 6 5 6 6 6 6 5 5 5 6 7 7 9 11 11 12 13 14 15 14 14
2 3 2 2 4 5 5 6 7 6 7 9 10 12 7 1 2 4 5 5 5 4 3 6 3 6 5 4 3 3 12 13 10 11 11 11 11 11 12 13 13 15 17 19 18 18 19 18 17 19 19 19 19 18 17 17 16 15 14 14 13 12 12 11 11 10 9 8 8 8 8 7 7 7 8 7 6 6 6 6 6 6 6 5 5 5 6 7 8 9 11 12 13 14 13 13 13
2 2 2 3 5 5 6 7 7 8 8 9 9 8 2 2 3 4 6 6 5 6 5 7 3 2 4 5 3 6 12 13 10 12 13 13 12 11 12 13 13 13 16 18 19 18 18 18 18 19 19 19 19 19 18 17 17 16 15 15 14 13 13 12 11 10 10 9 9 9 9 8 8 8 8 8 7 6 6 6 6 6 6 5 4 4 5 7 8 9 10 11 13 13 12 12 12
2 2 2 4 5 5 6 7 7 7 8 8 7 4 3 1 2 3 5 6 6 7 4 8 5 3 3 4 1 6 9 11 13 13 13 11 11 12 13 14 14 14 16 18 19 19 18 18 18 19 20 20 20 20 19 19 18 17 17 16 15 14 13 13 12 11 11 10 10 10 10 10 8 7 7 8 7 7 6 6 7 6 5 5 5 3 4 6 7 8 9 11 13 13 12 12 12
3 2 3 4 4 5 6 6 6 7 7 7 4 2 3 2 1 3 3 6 7 3 2 3 3 3 3 3 1 3 6 12 15 13 12 10 10 13 14 15 17 16 16 19 20 20 19 18 18 19 20 20 21 21 21 21 20 19 18 17 17 16 14 13 13 12 12 11 11 11 10 9 8 7 7 7 7 7 6 6 6 6 6 5 5 3 4 5 7 8 9 12 15 12 12 13 13
4 2 3 4 5 6 5 5 6 6 6 6 4 1 1 2 2 2 2 5 4 2 1 3 1 2 2 3 2 2 7 12 13 13 12 13 13 14 15 15 17 18 18 19 20 21 21 19 18 19 21 22 22 22 22 22 22 20 20 19 18 17 15 14 13 13 13 12 12 11 9 8 8 7 6 7 7 7 6 6 6 6 6 5 4 3 3 5 6 8 9 13 14 11 14 15 14
2 3 3 5 7 7 5 5 6 6 5 6 4 2 2 2 2 2 2 1 2 1 2 0 1 2 3 5 0 8 12 14 13 13 14 14 15 14 16 17 16 18 20 20 21 22 22 21 20 20 21 22 22 23 23 23 23 22 21 20 19 18 17 15 15 15 14 13 12 10 9 8 8 7 6 7 6 6 5 6 7 6 6 5 4 3 3 4 6 8 10 13 13 10 14 16 14
1 3 4 5 7 7 6 5 5 5 5 6 4 3 3 3 1 1 1 2 5 5 3 4 4 4 6 8 5 13 15 15 14 14 14 13 14 13 15 17 16 17 20 22 22 22 23 23 23 22 21 22 22 23 23 22 23 23 23 21 20 20 18 17 17 17 16 13 12 11 9 8 7 6 5 6 6 6 5 5 6 6 6 5 4 4 2 4 6 7 10 13 13 10 14 15 13
3 4 5 6 7 7 6 6 6 6 7 7 3 2 2 4 2 1 1 4 6 7 7 7 7 8 11 16 14 12 16 16 16 16 15 13 14 13 14 17 19 19 21 23 24 25 25 26 26 24 23 22 22 22 22 21 21 22 23 23 22 21 20 19 18 18 17 14 13 11 10 8 5 4 5 7 7 6 7 5 6 6 6 4 4 4 2 3 5 7 9 11 12 11 14 14 13
4 4 5 7 7 6 5 7 8 7 9 9 7 4 5 5 3 1 4 7 6 8 8 7 9 11 12 16 19 15 18 18 18 18 15 15 15 14 15 17 20 22 22 24 26 28 28 28 27 27 26 24 22 22 22 21 21 21 22 23 24 23 22 21 20 19 17 15 14 12 10 7 4 4 7 9 9 8 8 7 6 5 5 4 3 3 1 3 5 7 8 9 10 12 12 13 14
5 5 6 7 7 7 6 6 7 8 10 11 11 9 9 8 4 3 7 10 10 10 8 8 11 11 10 13 17 18 19 19 21 19 16 16 17 17 17 18 22 24 26 27 27 29 30 30 30 30 28 26 25 24 23 22 22 21 21 23 24 23 23 22 21 20 18 16 14 12 8 5 6 10 11 11 10 9 7 6 5 4 4 3 2 2 1 3 5 6 7 7 7 9 11 13 14
4 5 6 7 7 9 8 7 9 9 8 9 11 9 10 9 7 7 8 11 11 9 8 11 13 12 11 10 9 12 14 14 16 16 14 15 17 19 20 21 23 25 26 26 26 28 31 32 31 31 30 29 27 26 26 25 23 22 22 23 22 21 21 22 21 20 18 15 14 12 8 7 11 14 11 10 9 6 5 5 4 3 3 3 3 1 2 3 4 5 4 3 5 7 9 12 13
3 6 9 9 8 8 7 7 7 4 5 6 8 9 9 8 9 9 10 12 9 7 9 11 12 10 10 10 7 5 7 10 12 12 13 15 18 20 22 23 23 22 23 26 27 28 30 32 32 32 31 30 30 29 28 27 25 24 23 22 22 20 19 20 20 19 18 16 16 14 10 11 15 14 10 10 10 6 5 6 4 3 4 3 3 2 1 1 1 2 2 5 6 6 8 11 12
5 6 8 8 7 9 8 8 5 0 4 7 7 9 8 10 12 9 12 15 11 10 12 11 11 11 11 12 10 10 11 9 10 13 15 17 19 22 23 24 24 23 23 26 27 28 29 31 32 32 32 32 31 30 29 28 27 26 24 23 23 22 20 20 20 19 19 18 18 17 14 15 16 12 10 11 10 7 6 5 4 5 5 3 2 1 2 2 1 1 2 6 5 6 7 9 10
6 7 7 7 8 11 10 9 7 3 6 8 7 9 10 13 13 9 13 15 14 15 14 12 12 12 12 12 13 14 14 13 10 15 20 21 24 27 27 26 25 25 25 25 25 26 28 30 32 33 33 33 33 32 30 29 28 27 25 24 24 23 21 21 20 19 19 19 19 17 16 15 13 9 9 10 9 7 6 6 7 8 6 4 4 4 4 3 2 1 2 4 5 4 7 8 8
7 8 8 7 9 11 9 8 8 6 7 6 7 12 14 14 12 14 18 18 18 17 14 14 13 13 13 13 15 15 14 13 12 16 20 21 23 25 26 27 25 25 26 26 25 26 28 29 31 33 34 34 34 33 32 30 29 28 27 26 25 25 23 22 21 19 19 19 18 17 17 16 12 9 10 11 9 7 7 8 9 8 5 4 4 4 4 4 3 2 2 4 5 2 5 7 7
6 9 9 9 10 11 9 8 9 9 7 4 8 15 15 11 10 17 20 19 18 14 13 15 13 14 14 13 16 14 13 13 12 14 17 21 22 21 23 24 24 25 27 26 26 27 27 28 31 34 34 34 35 35 34 32 30 30 29 28 27 26 25 23 22 21 20 20 19 18 17 16 14 12 12 11 10 9 9 9 9 7 6 5 5 4 4 5 4 3 2 2 3 1 4 5 5
2 6 7 8 10 9 9 9 9 8 7 7 11 15 14 9 8 13 15 16 13 9 13 13 10 11 11 11 12 10 10 11 13 14 14 16 17 19 21 22 24 27 26 25 27 28 27 28 31 33 34 34 35 36 35 34 31 31 30 29 28 27 26 24 22 22 22 21 19 18 18 17 16 14 13 12 12 11 10 9 7 6 5 5 5 5 6 6 5 6 5 3 1 1 3 5 4
3 5 6 8 10 10 10 12 10 7 6 8 9 12 13 9 9 15 19 18 11 8 11 9 8 8 8 10 9 8 8 10 14 12 10 12 14 19 22 24 26 26 26 28 28 28 28 29 30 32 34 34 35 36 36 35 33 32 31 30 29 28 27 25 23 23 22 22 20 19 19 18 17 16 14 13 12 11 9 8 6 6 6 5 6 7 7 7 6 6 6 4 1 2 2 5 5
4 4 6 9 10 11 13 13 11 9 6 3 1 8 13 11 14 21 21 19 12 9 11 9 9 8 8 9 8 8 8 9 11 10 12 17 18 20 23 26 28 27 29 30 29 28 29 29 30 31 33 34 35 35 36 36 35 33 32 32 30 28 28 27 25 24 23 22 21 20 19 18 18 17 16 16 14 12 10 9 8 9 8 6 7 9 8 8 6 3 3 4 2 2 1 3 3
3 4 5 7 7 9 13 12 10 10 5 5 4 5 10 8 12 18 16 14 11 8 10 9 8 7 8 9 8 9 9 9 10 12 18 22 23 24 25 27 27 28 29 29 28 29 29 30 30 30 32 34 35 35 35 36 35 34 32 32 31 29 28 28 26 25 24 23 23 22 20 19 19 18 17 17 16 14 11 11 11 9 8 9 10 9 7 7 6 3 4 5 3 2 1 1 1
2 4 4 4 4 4 6 5 8 8 3 5 5 5 9 7 11 14 8 6 6 6 7 7 7 7 7 8 8 9 9 9 11 16 21 23 25 26 26 26 26 27 27 26 27 29 30 31 31 31 32 33 35 35 35 35 36 35 33 32 31 30 29 28 27 25 25 24 24 24 22 20 19 19 18 16 16 14 12 12 11 10 9 11 10 7 6 7 6 5 6 5 4 3 1 1 1
2 3 4 4 4 4 3 2 8 6 1 5 7 4 8 9 10 6 1 1 2 5 7 7 8 9 9 9 8 9 9 9 11 17 22 24 26 26 26 26 25 25 26 25 25 25 28 31 32 32 32 33 35 36 35 35 35 35 34 33 31 30 29 28 27 26 25 25 25 25 23 21 20 19 19 17 15 14 13 11 10 10 11 11 8 7 8 9 7 6 7 6 5 5 3 3 1
3 4 4 4 4 5 2 1 3 3 1 6 9 5 6 7 8 5 3 4 5 8 9 9 10 10 10 9 9 9 8 9 9 12 19 23 24 24 24 25 25 24 24 24 23 24 27 30 32 32 33 34 35 36 35 34 34 35 34 33 31 31 30 29 27 27 26 26 25 25 23 22 22 20 20 19 16 14 14 12 10 11 12 10 9 9 10 10 8 8 8 8 6 6 5 4 3
4 5 4 5 6 6 3 0 2 3 4 7 9 8 9 11 13 12 11 12 11 13 13 11 11 10 10 9 8 8 7 8 7 8 14 18 19 19 20 22 22 21 21 21 22 23 25 28 30 31 31 31 32 34 34 33 33 33 32 32 31 31 31 29 28 27 27 26 26 25 23 23 23 22 22 20 17 15 15 13 12 13 13 11 11 10 10 10 9 10 9 9 7 5 6 6 5
2 2 3 5 6 6 5 1 2 5 6 6 7 8 11 14 16 15 12 11 12 15 13 10 10 9 10 9 8 8 7 7 7 6 8 9 9 9 12 15 17 18 18 19 19 20 21 24 26 27 28 28 29 31 32 32 31 31 31 30 30 30 31 30 28 28 28 27 27 25 24 23 23 23 23 21 19 17 16 15 14 14 13 13 12 11 11 11 11 10 10 10 9 6 7 7 6
6 4 2 5 5 5 6 2 2 4 4 6 7 9 11 14 16 15 12 9 11 14 12 10 9 10 9 8 8 7 7 7 6 4 2 1 1 3 6 8 11 14 15 16 17 18 18 20 21 23 25 26 27 28 30 31 30 30 30 30 31 31 32 30 29 29 28 28 27 26 25 23 23 24 23 22 20 19 18 17 17 15 14 14 13 12 13 13 13 12 11 12 12 9 8 7 7
8 6 5 6 5 6 7 2 2 1 2 5 7 8 12 13 15 15 12 9 11 14 13 11 11 10 9 8 8 7 7 5 1 1 1 1 2 3 5 7 8 11 13 14 16 18 18 18 19 22 24 25 27 29 31 32 32 32 32 32 33 32 32 31 29 29 29 28 27 27 26 24 24 24 24 23 21 20 19 17 18 17 15 15 15 13 13 13 14 14 13 13 13 12 10 9 9
8 6 5 6 5 7 6 0 1 2 1 4 6 9 13 13 13 15 13 12 14 14 12 12 13 11 8 8 9 7 4 1 1 2 3 4 4 5 7 9 9 10 12 14 15 18 19 18 19 21 23 25 28 30 32 33 33 34 33 33 33 31 32 32 31 30 29 28 28 28 27 25 25 25 24 24 22 22 20 18 18 18 16 16 15 14 13 13 14 15 15 14 13 12 11 11 12
6 5 5 5 5 6 4 3 1 2 1 4 6 9 14 15 15 16 16 14 14 14 12 13 12 9 6 3 4 3 3 3 2 2 6 7 7 7 7 9 11 11 12 14 15 17 19 20 19 20 22 25 28 29 31 33 32 32 30 29 30 29 29 31 30 29 28 27 28 28 28 27 26 25 25 24 24 23 22 20 19 18 17 17 17 15 15 15 15 16 16 15 14 12 11 11 14
4 4 4 5 5 4 2 2 2 1 4 5 6 8 12 15 14 13 14 12 12 12 13 13 9 5 2 1 4 4 3 1 3 1 5 7 8 9 10 10 11 11 11 13 15 16 18 20 20 20 22 24 27 28 29 30 29 28 26 25 26 26 26 27 27 26 27 28 28 28 29 28 27 26 25 25 25 24 23 22 20 19 18 18 18 17 17 17 17 17 17 16 15 15 13 12 15
5 7 6 6 5 4 3 3 5 4 4 4 4 7 8 8 7 9 8 7 9 9 10 10 8 2 4 3 1 4 4 3 3 3 2 5 6 8 10 10 10 11 12 13 15 16 17 19 19 19 20 22 25 26 26 26 26 26 24 22 23 22 22 24 25 27 29 30 29 30 30 29 28 28 27 26 25 25 24 23 21 20 19 18 19 19 19 19 18 19 19 17 17 16 15 13 14
4 6 6 4 4 4 4 5 5 4 3 1 3 4 6 5 6 11 10 6 7 7 8 9 7 1 5 3 4 5 5 5 5 5 4 3 3 5 8 10 9 9 10 11 13 14 14 16 17 18 18 20 22 23 24 25 26 27 27 26 26 24 24 27 31 32 33 33 31 31 30 29 28 28 28 26 26 25 25 24 23 21 20 19 20 20 19 20 20 20 20 19 18 16 14 14 14
4 3 2 2 2 2 3 4 2 2 3 2 2 1 6 7 8 13 11 7 8 7 6 4 2 3 5 4 5 6 5 5 5 4 3 3 3 4 6 9 8 7 8 9 10 12 12 13 15 17 17 18 20 22 24 25 26 28 28 28 28 27 26 28 31 31 32 33 31 30 30 29 29 29 29 27 27 26 26 25 25 23 21 20 21 21 20 20 20 20 20 20 20 18 16 15 15
3 3 3 3 1 1 2 2 1 2 4 3 4 4 4 7 8 13 10 7 9 6 5 4 4 2 4 5 6 6 4 3 2 2 2 1 2 2 3 7 7 6 7 7 8 10 12 12 14 16 16 16 18 21 24 25 26 27 27 26 26 27 25 25 26 27 28 30 29 29 29 29 30 30 29 28 27 27 27 26 26 25 23 22 22 22 22 21 20 20 21 20 20 20 19 17 15
1 2 3 2 1 2 2 1 2 4 4 4 4 4 2 5 8 13 9 6 8 4 8 6 4 5 6 6 5 4 3 2 1 1 1 1 1 2 4 6 6 6 5 6 7 8 11 12 12 15 16 15 16 19 23 25 25 26 26 25 24 24 23 22 23 24 26 28 29 28 29 30 30 30 30 29 28 28 28 27 27 26 26 25 23 23 23 22 21 21 22 23 22 22 22 20 17
1 2 3 2 1 2 1 0 2 2 1 6 7 5 3 5 7 10 7 6 6 5 8 6 7 8 7 5 4 3 2 2 1 2 2 1 2 4 3 4 5 5 5 6 6 7 10 12 12 14 15 15 16 18 22 25 24 23 25 26 24 23 23 21 22 25 25 27 29 29 29 30 31 31 30 30 29 29 28 28 27 28 28 27 26 24 24 24 23 23 23 24 25 24 23 23 21
1 3 3 3 3 2 1 1 1 2 2 7 7 7 4 2 6 7 4 2 1 4 5 6 7 7 6 5 4 3 3 3 2 3 3 2 4 5 3 5 7 5 4 6 7 7 9 12 13 14 15 15 15 18 21 24 25 24 24 26 26 24 24 23 24 26 27 28 29 29 30 30 31 32 32 31 30 30 29 29 29 29 29 29 28 26 26 25 25 25 24 23 25 25 24 23 22
1 2 2 2 1 1 1 1 1 0 4 5 3 3 4 3 6 6 4 1 5 3 2 5 7 7 6 5 4 4 4 3 3 4 4 3 4 4 4 7 8 5 5 7 8 8 10 11 13 14 15 16 16 17 21 24 25 25 24 25 26 25 25 25 26 28 29 30 30 30 29 29 29 31 32 32 32 31 31 30 30 30 30 30 30 29 27 26 25 25 25 24 24 25 25 23 22
1 1 1 1 1 1 1 0 2 3 4 3 1 1 1 6 8 9 11 10 7 4 2 3 6 6 4 4 4 4 3 4 5 4 3 2 2 2 3 6 7 7 7 7 8 9 11 12 13 14 16 17 17 18 21 23 25 27 25 24 25 25 25 26 27 28 30 30 30 30 30 30 29 30 32 34 34 34 33 32 32 32 32 32 31 30 29 27 26 26 26 26 25 25 26 26 24
4 3 3 3 1 2 2 3 3 3 3 3 3 1 2 5 7 8 10 8 4 2 1 4 6 5 3 3 3 1 3 5 4 2 1 2 2 1 1 3 5 6 7 7 8 10 11 12 14 15 16 17 18 18 20 23 24 26 27 25 24 25 26 27 27 27 29 30 30 31 32 32 32 33 34 35 36 35 35 34 34 34 33 32 31 31 30 28 27 26 27 27 27 27 26 26 27
5 4 3 2 2 2 3 2 2 2 1 1 2 1 3 4 4 5 5 5 4 2 2 5 5 4 4 5 3 2 5 5 4 3 3 3 2 1 1 2 4 5 6 7 8 9 11 12 14 16 16 17 19 19 20 22 23 24 25 25 24 25 26 27 27 27 27 29 30 31 32 33 33 33 34 34 34 35 36 35 34 34 33 32 32 31 31 29 28 27 27 27 27 27 26 26 27
4 1 3 1 2 2 1 1 1 0 1 1 1 3 5 5 6 9 9 8 3 1 1 3 4 4 4 5 4 4 5 5 4 4 5 5 4 3 3 4 5 6 7 8 9 10 12 12 13 15 16 17 18 19 19 20 21 22 23 24 25 25 26 27 28 27 27 28 30 31 32 32 32 32 32 32 32 34 35 35 35 34 34 33 32 32 31 31 30 29 28 27 27 26 26 27 27
1 2 2 4 2 1 1 1 1 2 0 3 4 4 5 4 7 10 6 2 1 1 1 1 4 5 4 4 5 5 5 5 5 5 6 6 6 5 6 6 7 7 8 9 10 10 12 12 13 14 14 16 17 18 19 19 20 21 22 23 25 26 27 28 29 29 28 28 29 30 31 30 30 30 31 31 31 32 33 34 35 34 34 33 33 32 32 32 31 31 30 30 29 28 27 28 28
2 2 2 3 2 1 1 1 2 0 3 4 5 6 6 2 4 5 0 1 5 5 3 3 4 6 5 5 6 6 6 6 5 6 6 6 6 6 7 8 8 7 7 7 8 9 10 11 12 13 13 15 16 17 18 18 19 20 21 22 24 26 27 28 28 28 28 27 28 29 29 30 30 29 30 30 30 31 32 33 34 34 34 34 34 33 33 33 32 33 33 32 32 30 29 29 30
2 2 2 1 1 1 1 2 2 2 3 3 4 7 5 4 4 4 3 5 7 7 7 6 6 7 7 7 7 7 7 6 5 6 5 5 6 6 8 10 9 7 7 6 6 8 9 10 11 12 13 13 14 15 16 17 18 19 20 21 22 24 25 26 26 26 25 26 27 27 28 28 29 29 29 29 30 31 32 33 33 34 34 35 34 34 34 33 33 34 34 34 33 32 32 32 32
2 3 2 1 1 2 3 2 1 2 2 3 5 6 4 5 6 6 8 8 6 5 7 8 8 8 7 7 7 7 7 6 6 6 3 1 4 6 9 11 10 8 7 7 7 9 10 10 11 12 13 13 13 15 16 17 18 18 19 19 20 22 23 24 25 25 25 25 26 26 27 27 27 28 29 30 30 31 32 33 33 34 34 35 34 34 34 34 34 35 35 35 35 34 34 34 34
2 0 2 2 1 1 1 2 1 3 1 2 3 5 5 5 4 6 8 6 5 3 3 6 8 9 8 7 7 7 6 6 7 5 2 3 4 6 7 9 9 8 8 9 10 11 11 12 12 13 13 14 15 16 17 18 18 18 18 19 19 20 21 22 23 24 26 26 26 26 27 27 27 28 29 30 31 32 32 32 33 33 34 34 34 34 34 34 35 35 36 35 35 35 35 35 34
6 6 6 5 4 3 1 3 3 2 2 2 2 5 8 5 4 6 7 4 2 2 1 2 4 7 8 7 7 7 6 7 7 4 4 5 6 6 6 7 7 9 11 12 13 13 12 13 14 14 14 14 15 16 18 18 18 18 18 18 18 18 19 20 22 23 25 27 27 28 27 27 29 29 29 30 31 31 31 31 32 32 33 33 33 34 34 35 35 36 36 36 35 35 35 35 33
Wind_Direction
337 333 332 330 318 310 295 262 247 252 205 252 251 262 260 244 355 334 280 277 129 58 43 335 80 25 304 293 264 313 284 255 283 273 228 168 142 158 170 172 170 167 172 183 180 178 183 186 188 187 187 189 192 195 196 196 197 194 193 195 196 200 201 203 201 198 200 211 224 232 239 245 252 255 258 260 257 267 280 293 302 306 312 316 322 331 334 333 334 336 335 334 336 335 330 328 326
338 334 334 330 305 294 296 243 254 269 242 255 246 249 248 199 145 255 311 54 88 103 69 42 35 283 296 298 285 304 283 265 243 148 118 136 134 157 175 175 173 167 170 182 182 179 184 188 190 189 188 190 192 195 197 199 199 196 196 197 199 202 205 208 205 204 203 212 224 230 239 244 250 256 259 259 256 264 279 289 303 306 310 318 326 334 334 334 335 338 338 335 336 334 330 326 324
336 337 336 335 296 234 287 281 251 259 258 259 252 258 239 175 227 69 76 78 95 118 111 88 5 268 230 245 255 243 258 321 304 114 122 144 144 164 175 170 168 170 171 181 183 181 186 190 192 191 189 190 192 194 197 202 201 197 198 198 200 204 208 211 210 210 210 216 224 231 236 242 249 255 259 261 264 270 279 286 303 309 313 320 330 335 332 335 337 341 341 337 336 334 329 326 323
331 344 339 335 304 219 266 249 237 253 253 261 270 282 267 103 326 72 93 94 97 105 104 130 176 199 214 225 243 234 239 324 28 58 120 149 152 164 169 161 163 172 171 179 183 181 190 194 194 192 191 191 192 193 197 202 201 198 201 200 199 205 208 211 214 214 216 221 227 232 233 239 245 251 258 265 273 279 284 292 304 308 315 322 331 336 334 337 340 342 340 338 338 334 330 326 324
326 340 325 301 305 280 271 248 242 238 239 261 263 271 277 37 326 109 110 121 122 140 169 170 172 173 235 258 278 250 235 110 62 53 96 120 139 160 167 159 164 175 173 177 178 179 194 200 197 194 193 192 191 192 196 201 199 199 203 201 200 205 208 210 214 215 220 226 230 228 229 235 239 248 257 265 276 283 290 298 303 308 312 320 331 335 338 340 343 343 340 341 340 335 331 327 326
322 323 264 214 276 302 274 263 251 243 243 259 271 283 292 311 8 73 110 135 134 161 171 182 212 257 252 229 198 221 291 117 138 84 110 133 149 168 171 160 168 181 176 174 171 177 197 205 201 196 194 191 191 192 194 199 198 199 202 200 202 205 207 210 211 216 223 229 230 224 228 232 240 251 258 264 271 284 292 296 301 306 307 317 332 335 340 343 344 343 342 342 339 335 333 329 328
299 301 240 193 253 271 240 254 253 261 258 258 266 267 274 285 60 69 334 115 124 165 174 205 157 4 278 201 193 233 230 154 165 142 137 145 154 174 172 162 170 185 181 174 170 181 201 208 205 200 197 192 191 192 195 197 198 200 201 201 202 204 207 209 212 218 225 228 227 224 230 233 247 258 264 271 273 283 289 294 297 299 302 310 329 336 339 343 346 344 343 343 340 337 334 331 331
254 258 263 200 253 243 239 253 249 255 262 269 270 269 275 285 342 9 311 315 223 171 173 195 138 208 255 188 205 225 193 161 165 152 147 147 156 172 170 166 171 184 184 175 175 189 204 208 206 203 198 194 192 193 196 197 199 201 201 201 202 204 206 209 214 220 224 225 224 227 231 235 249 262 271 276 281 288 288 291 293 293 296 305 325 335 339 344 345 345 344 342 341 338 335 334 335
220 209 79 234 236 251 256 259 255 250 254 262 266 275 281 282 304 318 291 274 254 210 177 171 158 204 276 204 212 177 141 148 159 153 152 154 164 170 166 169 175 185 182 176 184 195 204 208 207 203 199 195 192 193 197 198 200 201 201 202 203 204 206 209 215 218 222 223 223 227 230 237 251 264 272 277 288 293 289 290 291 287 286 301 320 329 338 345 345 346 344 342 341 338 337 338 337
205 189 236 228 221 243 250 258 262 251 247 255 258 262 268 275 347 264 266 267 267 280 139 133 163 213 294 290 243 146 145 158 160 159 164 168 176 174 168 171 180 191 183 179 191 200 205 210 208 203 200 197 194 195 196 199 202 202 202 203 204 205 206 210 214 216 219 221 221 226 231 241 253 263 272 282 293 293 290 291 292 288 278 291 312 321 332 343 346 345 345 342 340 339 341 342 343
214 186 207 243 231 238 244 255 261 263 262 261 261 257 259 15 315 275 267 271 264 269 119 116 179 221 255 270 259 142 153 164 164 167 171 178 186 182 174 171 183 200 193 186 194 205 210 210 209 203 202 199 197 197 196 200 202 203 203 203 205 205 206 209 212 214 216 218 220 228 236 241 252 265 278 288 296 293 291 291 293 290 276 281 301 315 326 337 345 348 347 343 340 342 345 347 350
227 197 186 224 232 238 243 254 261 274 279 270 271 273 304 103 239 261 262 271 259 254 196 159 165 202 220 248 236 138 150 163 159 163 174 184 191 185 178 174 183 203 203 196 195 206 214 211 208 204 204 203 200 198 198 201 203 203 204 204 206 205 206 208 211 213 213 218 222 230 239 244 252 268 286 294 296 294 290 291 294 290 279 277 284 304 320 328 340 350 347 342 343 344 346 351 350
233 220 214 233 232 241 243 251 263 273 281 277 279 312 3 76 225 275 277 281 271 274 228 168 142 98 231 273 176 148 158 160 154 163 177 182 188 184 177 179 185 196 205 203 200 205 214 214 209 207 207 207 204 202 199 202 205 205 205 206 207 208 207 207 209 212 213 218 224 233 240 246 256 271 287 293 296 293 291 290 291 289 283 277 271 283 308 320 338 348 345 343 346 345 354 355 344
257 222 227 256 244 241 242 246 257 260 265 274 286 358 4 8 308 325 310 289 278 283 291 204 137 96 243 266 241 169 145 146 156 166 170 166 178 185 178 187 193 194 205 207 205 205 211 216 212 211 211 211 209 205 203 204 207 206 206 207 208 209 208 208 209 212 217 219 226 235 242 249 260 271 280 288 292 291 290 287 289 290 284 279 267 258 295 317 334 340 345 346 347 355 11 0 343
258 257 223 249 255 247 241 241 251 252 256 274 294 44 342 263 237 287 263 272 280 136 26 319 76 116 244 263 263 172 145 153 164 163 165 168 174 184 181 192 202 198 205 208 207 207 208 213 215 214 213 213 212 210 208 206 208 207 207 208 209 210 209 209 210 215 221 224 230 237 245 251 258 265 273 280 286 290 291 288 287 287 285 281 263 244 289 318 328 336 348 348 351 9 20 9 355
280 296 247 227 242 243 235 242 254 252 258 268 256 155 247 255 169 211 217 220 295 207 149 259 218 243 285 295 183 142 160 168 170 168 171 177 176 183 187 193 204 205 210 210 208 210 209 210 213 215 215 214 214 213 212 210 211 210 209 210 210 211 211 211 211 218 224 228 234 239 243 247 255 260 264 271 275 283 291 287 289 289 287 280 257 241 282 320 327 338 354 353 355 15 19 11 1
163 256 251 228 231 231 228 234 247 254 265 254 208 165 283 305 147 186 142 174 256 260 222 214 215 227 246 260 207 151 166 173 169 172 170 176 177 182 194 197 201 208 215 214 211 211 211 212 211 213 214 215 214 212 213 214 215 214 212 212 212 214 214 214 215 222 228 230 236 239 240 242 252 256 265 278 278 287 293 289 291 289 286 279 255 243 271 326 331 346 5 3 358 18 20 7 357
185 222 232 230 228 227 230 239 250 263 272 267 231 163 254 286 256 184 172 215 231 241 240 236 227 222 223 241 238 178 174 184 174 173 169 174 180 183 197 201 203 207 214 217 213 211 213 214 212 211 211 213 213 209 209 213 218 218 216 215 214 216 217 217 218 224 230 232 236 237 237 238 237 245 265 277 279 291 299 299 293 288 289 281 257 248 265 334 346 5 16 12 1 11 17 1 354
199 221 227 231 232 231 234 249 262 272 280 292 302 294 278 289 292 295 276 261 251 252 248 245 245 238 225 231 236 202 180 189 184 180 179 182 188 190 196 199 203 207 211 216 215 213 214 215 213 212 210 209 209 206 206 208 215 218 217 217 216 217 219 219 222 226 231 233 237 237 232 225 208 214 236 252 268 285 290 291 289 290 295 288 267 255 266 358 16 21 18 21 3 0 9 356 355
205 218 232 235 238 250 255 262 266 274 287 292 294 298 292 299 309 272 275 275 264 256 252 253 255 251 242 233 227 208 189 192 192 191 193 195 200 201 202 199 201 207 211 217 218 215 214 215 215 214 212 208 206 203 204 203 208 215 215 215 216 218 219 221 224 227 231 232 235 236 219 194 206 220 228 247 265 275 274 273 280 293 301 306 296 260 304 22 26 15 13 22 352 351 3 352 353
202 209 234 240 236 252 256 264 266 271 286 284 285 294 289 293 288 263 264 268 259 249 240 241 250 253 255 255 237 211 197 196 196 198 203 208 211 212 214 211 210 214 216 217 218 216 215 216 215 214 212 209 206 202 203 203 204 211 212 211 212 216 219 220 223 224 226 226 224 227 204 188 219 226 232 251 262 266 261 267 278 297 306 317 325 2 52 14 5 3 6 347 333 357 358 349 353
226 219 234 242 243 257 260 268 269 271 292 287 283 281 282 287 275 265 260 257 253 247 245 244 256 270 276 284 296 270 232 209 196 201 211 216 219 219 221 221 219 219 216 213 215 218 218 216 215 214 211 209 208 205 204 205 204 207 209 207 204 209 215 217 219 217 216 215 214 218 200 200 224 228 228 241 255 260 248 260 271 281 290 293 313 28 70 290 333 15 334 302 337 15 343 342 356
230 240 237 243 251 261 269 276 270 277 282 269 271 279 289 287 275 269 257 256 261 259 257 261 268 275 281 284 288 281 268 244 207 201 210 217 221 223 223 221 220 217 213 213 215 217 217 216 215 213 210 208 208 207 205 205 206 206 207 205 202 203 208 210 213 211 210 211 212 214 203 206 226 229 221 231 248 248 232 244 245 244 250 240 253 249 237 230 182 21 291 298 349 29 333 341 356
212 252 254 254 255 251 251 258 252 205 248 257 271 287 282 273 275 273 259 259 262 260 261 265 268 268 266 267 266 263 260 258 242 219 214 217 221 225 226 224 223 220 217 216 214 214 215 214 213 212 210 208 208 205 204 206 207 206 205 205 203 201 202 205 208 206 207 211 214 214 206 208 224 222 213 229 245 242 225 226 227 231 232 224 222 219 227 204 182 235 243 297 1 29 332 351 357
211 250 261 260 260 257 251 251 251 235 243 257 269 270 262 260 273 275 267 262 258 259 266 265 264 265 260 257 258 257 255 254 253 241 230 230 232 230 226 223 222 220 219 220 216 214 216 215 211 211 210 208 208 205 203 205 207 205 203 204 202 199 201 203 203 201 203 209 213 213 209 205 210 210 210 224 236 237 224 223 231 229 219 223 223 209 212 189 182 234 253 322 14 39 330 2 3
214 238 247 251 255 258 254 245 247 248 247 243 255 261 259 261 274 270 261 258 258 255 258 257 254 254 253 252 253 252 251 247 247 246 241 240 241 233 225 221 217 218 221 222 219 216 216 214 211 211 210 209 207 204 202 204 204 204 203 203 203 201 200 202 200 199 200 206 210 210 210 203 198 204 211 218 223 225 224 228 234 224 210 216 214 200 202 188 185 214 207 359 37 71 332 7 8
237 250 259 265 268 267 262 256 249 250 252 233 243 259 261 258 260 265 258 253 255 247 248 249 244 247 245 249 254 250 246 243 241 243 241 236 232 229 227 222 219 222 224 222 221 217 215 214 212 211 210 209 206 204 203 203 203 204 203 203 205 203 200 199 200 200 200 204 210 210 209 204 196 198 208 217 218 218 224 229 229 219 213 213 210 204 199 184 184 205 193 178 124 66 337 10 20
291 293 293 283 278 273 262 261 256 244 249 235 241 266 267 256 242 254 261 260 252 239 250 249 242 251 247 248 253 250 249 244 241 238 235 232 225 222 223 222 222 224 223 222 221 216 214 215 213 211 210 208 206 204 203 202 202 203 203 203 204 204 201 199 198 200 201 202 208 211 211 206 199 197 203 212 214 215 221 221 215 212 209 212 219 211 197 181 184 213 209 202 154 76 356 18 26
288 299 296 286 278 269 252 244 238 226 228 202 249 291 267 242 231 242 253 262 261 243 248 251 245 251 251 249 244 241 241 238 237 231 230 234 230 222 219 222 222 221 222 224 222 217 215 214 213 211 209 208 207 205 204 203 202 202 203 203 203 204 201 200 198 199 201 200 204 210 212 209 202 199 203 209 211 209 210 210 209 211 204 203 220 221 210 190 182 202 168 157 135 113 71 41 23
271 261 255 278 284 268 246 231 214 212 204 124 105 288 264 237 235 245 249 251 251 240 240 244 243 245 246 242 236 236 232 227 227 224 228 231 231 225 220 223 222 221 224 224 221 218 216 213 212 211 209 208 208 206 205 203 202 201 202 203 202 202 201 200 199 200 200 199 202 208 211 210 204 201 205 212 214 209 206 210 211 211 204 204 218 226 207 175 171 174 140 146 157 165 182 68 6
257 262 233 241 263 273 255 202 163 182 195 131 147 246 267 282 275 267 266 241 235 245 245 246 248 248 248 241 233 233 229 225 224 224 226 227 229 226 221 221 220 219 220 219 219 218 215 212 211 210 209 209 208 206 205 204 202 200 201 201 201 201 201 200 200 200 200 199 203 208 210 209 206 202 205 214 217 210 205 213 214 204 206 215 219 215 179 160 174 176 161 164 165 172 165 101 66
212 250 250 217 217 259 294 138 157 177 214 169 174 241 267 274 281 282 4 107 214 251 248 242 246 247 252 252 244 241 236 231 228 227 227 228 229 226 222 222 219 215 214 214 217 216 212 210 209 209 208 208 207 206 205 204 202 200 200 200 200 200 200 201 200 200 200 200 203 208 210 209 207 202 203 213 215 207 202 211 214 201 211 217 205 200 179 167 181 176 171 175 169 176 162 130 153
212 202 256 252 217 239 247 176 209 187 144 191 200 253 281 274 285 305 324 298 272 265 259 250 250 250 250 249 245 242 241 239 235 229 227 227 228 226 222 219 215 212 212 212 213 213 210 209 209 208 207 207 206 204 203 202 201 200 200 199 199 200 200 200 199 200 200 200 203 209 211 208 208 203 202 210 212 207 200 200 206 205 215 209 190 202 186 170 183 181 179 180 172 185 179 157 164
235 201 240 262 248 249 244 339 269 197 197 215 213 238 262 269 279 284 282 281 277 272 268 262 258 254 250 248 244 241 239 240 237 233 229 227 228 227 220 215 212 210 210 213 214 214 211 208 208 207 207 205 204 202 200 200 199 198 199 199 199 200 201 201 199 200 201 200 203 209 211 208 208 205 204 209 208 207 201 194 202 211 217 203 193 202 183 174 191 185 181 177 169 188 185 173 177
298 222 223 273 269 256 254 243 191 199 213 227 225 242 262 271 276 277 272 268 267 266 266 264 260 256 253 249 247 246 245 244 240 237 235 232 229 218 205 199 203 208 211 212 213 213 210 208 208 206 205 203 202 201 198 197 196 195 196 196 198 199 200 200 198 200 201 200 202 208 210 208 208 206 207 210 207 206 201 193 202 215 216 201 196 195 180 184 191 183 185 176 167 179 185 184 180
338 321 283 296 299 273 272 273 181 225 240 241 246 259 270 274 276 278 274 267 267 270 273 272 265 259 254 249 248 244 240 245 245 243 243 219 128 151 168 181 196 207 212 210 209 208 202 202 203 202 204 203 200 197 194 192 191 191 192 192 195 197 198 197 197 200 200 200 201 206 209 208 208 207 208 211 207 205 204 198 203 215 214 200 195 192 187 193 187 180 189 183 172 170 179 192 177
304 312 307 290 288 280 281 274 173 262 295 261 269 274 273 274 276 280 281 274 269 268 269 269 264 258 248 239 240 236 230 230 191 130 128 135 155 189 203 205 202 203 207 206 204 203 199 197 199 199 202 201 197 193 190 189 188 188 189 191 193 194 193 193 195 199 199 200 202 205 208 209 209 208 208 211 208 205 205 202 206 215 212 200 197 194 192 198 192 185 189 188 184 176 176 189 176
281 295 298 285 275 271 281 36 132 72 61 276 298 294 281 278 277 281 283 277 269 264 263 261 259 256 246 226 218 218 211 157 87 170 174 158 172 208 221 215 209 203 201 202 200 201 200 200 202 200 199 198 197 194 192 191 192 190 190 192 193 191 192 193 194 196 198 200 202 205 208 208 209 209 209 211 209 205 204 203 208 216 212 201 199 195 193 198 197 192 191 188 187 186 185 187 176
273 282 274 272 276 274 297 44 56 81 111 281 312 307 289 285 280 277 273 266 262 260 255 252 251 251 256 233 180 167 90 48 324 216 155 149 167 189 210 215 213 210 204 203 200 199 199 200 202 200 198 198 197 196 195 195 196 195 194 193 192 190 192 195 195 195 197 200 203 206 208 208 209 209 210 211 210 207 205 204 208 216 214 204 200 196 194 199 198 195 195 190 182 184 191 193 185
243 247 253 261 274 277 284 4 343 267 214 257 308 306 287 284 281 275 266 255 250 248 245 248 248 230 220 66 88 99 89 30 303 289 141 155 171 180 194 202 203 205 202 200 198 197 197 198 199 199 199 199 198 198 198 198 196 196 196 195 193 192 194 196 196 196 198 201 203 206 209 208 208 210 211 211 210 208 207 206 208 214 216 208 202 199 197 200 200 197 197 193 184 182 186 195 196
233 223 229 248 265 275 284 325 333 302 245 239 312 309 279 276 287 287 284 266 246 233 232 253 270 243 111 83 133 156 167 189 223 267 188 158 167 176 184 188 190 195 198 198 198 198 198 199 200 200 201 202 200 199 198 196 193 191 190 187 187 188 189 190 192 195 198 201 203 204 207 207 208 210 212 212 211 210 209 208 208 213 216 212 205 204 204 205 204 203 201 195 191 190 186 190 200
261 229 226 246 284 308 320 330 335 325 313 339 24 339 284 296 313 294 296 289 256 225 215 245 275 315 109 137 215 183 189 201 204 227 214 182 188 171 169 176 187 198 201 201 198 198 198 199 200 200 201 201 199 198 195 193 189 187 183 179 178 179 181 187 193 196 197 199 202 203 204 206 208 209 212 214 212 211 212 209 208 211 215 215 209 207 209 209 208 209 208 201 196 197 193 191 200
282 250 278 338 320 315 302 304 316 288 297 287 108 84 279 297 300 281 285 285 259 230 201 225 343 78 128 182 192 170 188 201 203 224 217 207 196 173 171 174 182 193 193 196 196 195 196 196 196 196 197 196 196 195 193 191 189 188 186 184 184 184 185 192 197 198 198 199 201 203 203 204 207 210 212 214 214 213 214 212 209 210 214 217 214 209 210 213 213 212 214 209 202 200 198 197 201
257 257 315 336 274 252 265 289 279 262 301 284 177 154 267 290 286 276 284 287 265 229 147 97 62 112 173 183 171 169 185 174 184 245 252 220 169 164 154 147 153 160 167 184 193 194 196 196 195 195 195 196 197 196 194 192 191 190 190 191 192 194 194 195 197 198 199 200 201 203 203 204 207 210 212 214 215 214 214 213 212 211 213 217 217 214 212 213 215 214 215 214 208 206 205 204 204
219 259 296 324 330 306 305 354 271 278 328 297 233 154 220 277 280 283 288 279 261 189 124 118 141 176 194 185 164 165 177 151 158 249 310 340 54 96 104 116 133 152 164 179 186 190 191 192 194 194 194 196 197 197 195 195 194 193 194 195 198 200 200 199 196 196 199 200 201 203 204 205 206 209 212 214 215 215 215 215 214 213 213 216 218 218 214 212 214 214 214 214 211 210 211 210 209
200 270 270 268 289 300 315 6 283 305 311 265 245 170 182 275 273 282 297 286 257 161 134 152 169 180 188 176 147 144 149 134 107 58 35 12 82 91 96 125 139 154 170 172 174 182 183 184 188 188 191 194 195 196 196 196 197 198 200 201 202 202 200 199 196 195 197 199 200 202 203 205 205 207 209 213 215 216 216 216 217 217 217 217 219 220 216 213 213 215 216 217 215 212 212 213 212
220 256 246 237 218 185 197 201 252 337 254 257 244 178 157 297 269 262 265 279 37 111 139 163 169 168 158 140 121 112 83 60 52 57 44 41 103 115 135 143 144 152 161 162 170 175 177 183 186 187 190 193 196 197 197 199 199 201 204 205 205 203 199 195 191 192 194 197 198 200 202 204 206 207 208 211 214 216 216 216 218 220 219 219 219 221 220 217 215 216 217 219 219 216 214 214 215
262 249 262 287 251 129 73 140 101 244 242 261 271 158 141 231 257 255 237 284 11 357 226 179 168 154 133 125 110 95 82 59 46 51 35 30 101 134 149 142 149 158 156 164 174 175 178 183 186 190 192 194 199 200 199 201 202 203 206 206 207 205 201 196 193 192 194 195 197 198 199 202 205 208 209 210 212 214 215 216 218 220 220 220 220 222 223 222 220 218 218 219 221 221 218 216 218
171 220 292 44 20 337 334 223 179 211 248 265 256 121 171 240 254 266 273 286 303 285 250 161 155 141 107 92 86 85 96 84 62 51 25 24 82 124 145 148 161 170 170 176 180 180 184 186 188 193 196 197 200 202 202 203 204 205 205 206 208 207 204 202 200 198 197 198 198 197 197 199 202 206 208 210 212 213 214 216 217 219 221 222 222 223 224 224 222 221 221 222 222 223 222 220 220
168 174 164 143 165 264 248 235 218 216 265 265 234 218 258 272 266 252 261 277 268 235 189 142 139 136 124 117 118 124 109 99 91 86 80 75 81 93 135 151 164 175 182 187 189 189 190 191 193 195 198 200 201 204 205 205 207 208 207 207 208 207 207 207 207 205 202 202 201 200 201 202 203 206 209 212 213 213 215 218 219 221 222 223 222 223 224 224 224 224 225 225 225 226 226 224 224
192 202 151 141 193 215 221 219 232 263 304 278 296 286 216 238 262 229 242 268 257 266 205 164 141 134 143 139 138 123 111 117 136 149 143 138 139 157 186 176 175 184 192 197 203 202 199 200 200 200 200 200 202 205 207 208 209 209 209 209 209 208 209 210 211 211 208 207 206 205 207 208 208 210 214 216 215 214 216 218 220 222 223 223 223 223 224 224 224 225 226 228 229 229 228 228 227
214 177 91 161 225 196 220 207 191 210 2 275 251 255 221 228 279 276 278 283 260 36 36 141 129 116 112 116 130 134 136 150 163 165 162 160 160 176 194 190 189 197 199 204 212 212 209 209 207 208 206 203 205 207 209 211 212 211 211 211 211 210 210 211 213 213 213 213 212 211 212 212 213 214 216 218 218 217 218 219 220 222 223 224 224 223 223 223 224 224 225 227 229 230 229 229 229
217 87 143 248 246 120 201 277 35 90 30 252 214 250 274 288 293 278 270 274 216 152 43 126 142 133 123 140 162 173 174 173 181 190 182 166 165 180 191 190 192 199 206 212 216 216 217 216 212 213 211 207 209 212 213 214 213 213 214 213 214 213 212 213 214 215 216 216 217 216 216 216 216 217 217 219 220 220 220 220 220 222 223 223 224 223 223 223 223 224 225 226 228 229 230 230 229
110 156 240 287 346 44 157 278 339 183 241 252 212 241 270 267 287 292 97 173 233 217 183 182 170 154 167 194 194 194 188 181 194 210 204 180 171 181 193 201 207 210 218 223 222 222 223 221 218 217 216 214 215 217 218 219 217 217 217 216 217 217 216 217 218 218 219 218 219 219 218 218 218 218 219 220 221 221 221 222 221 222 223 223 223 223 223 223 222 223 225 226 228 228 228 230 229
133 217 248 49 89 256 181 177 254 239 249 279 260 263 258 201 226 269 261 247 234 207 182 184 187 179 189 201 196 191 181 186 211 220 215 187 179 196 204 209 217 221 229 236 231 227 224 225 224 222 224 224 222 223 224 224 223 223 222 221 222 222 222 223 223 223 223 222 222 220 219 220 219 218 219 219 220 221 221 221 221 222 222 222 222 222 222 222 221 222 223 225 226 226 227 228 229
1 333 312 161 184 202 186 184 202 203 246 297 297 292 264 208 208 212 231 254 254 213 186 187 193 191 194 193 186 188 184 196 221 224 231 218 203 215 213 213 220 227 237 241 234 232 232 232 229 225 225 222 221 225 226 226 227 226 226 225 225 226 226 226 226 226 226 226 225 223 222 221 220 219 219 220 221 221 222 222 222 222 221 221 221 221 221 221 221 222 223 224 225 224 225 227 228
160 250 225 216 208 173 194 277 216 154 181 273 287 288 264 224 198 201 220 254 294 284 229 213 197 179 185 190 177 181 188 203 226 237 285 303 258 241 230 226 231 238 244 245 242 242 242 238 235 232 229 223 221 222 224 227 228 227 227 227 226 227 227 227 227 227 228 228 227 226 225 223 222 222 220 221 221 222 223 223 223 222 222 221 221 221 221 220 221 222 222 224 224 223 224 226 228
170 187 194 191 181 143 115 270 248 148 155 199 198 279 274 232 193 230 230 213 239 279 326 267 210 167 173 187 180 182 192 210 234 267 306 291 273 267 260 249 243 245 250 252 250 248 244 241 241 240 236 231 228 226 224 226 226 225 226 227 226 226 226 227 228 228 229 230 229 228 227 226 225 224 223 223 223 223 224 224 224 224 223 223 223 222 221 221 221 222 222 223 223 222 223 225 226